星链-1395 (STARLINK-1395 )

导读

STARLINK-1395是美国太空探索技术公司(SpaceX)星链卫星互联网星座中的一颗卫星,于2020年6月4日发射升空,属于星链项目早期部署的卫星,主要用于为全球用户提供低延迟、高速率的卫星宽带互联网服务,运行在近地轨道,是星链组网建设过程中的重要组成部分,服务全球多地互联网接入需求。

基本信息
目录编号:
45680
目录名称:
STARLINK-1395
国际标识:
2020-035Z
轨道中心:
EARTH
卫星名称:
星链-1395
卫星全名:
星链-1395 (STARLINK-1395 )
卫星状态:
已陨落 最后检测时间 2025-04-26
发射日期:
2020-06-04 UTC
国别 :
美国 (US)
星等 :
--
该卫星已列入 空间交会检测服务 Space Conjunction Data Service (SCDS) ,当前飞行风险评估等级: 无高风险
轨道信息
数据来源 国际轨道数据
星历时间: 2025-04-26T04:44:57+0800
轨道信息已过期503天
半长轴: 6572.168km
偏心率: 0.0009961
轨道倾角: 53.035°
近地点辐角 254.523°
升交点赤经 346.937°
平近点角 212.027°
近地点: 187.486km
远地点: 200.58km
周期: 88.374分钟
每日圈数: 16.294455
详细信息
固有亮度:
5
最大亮度:
2.5
卫星平台:
Starlink V1.0
覆盖范围:
全球
运营商:
太空探索技术公司
运营商所在国:
美国
制造商(研发单位):
太空探索技术公司
制造商所在国:
美国
使用方式:
暂无
卫星简介
星链(Starlink)计划是由太空探索技术公司(SpaceX)提出的一个巨型低轨卫星互联网星座项目,计划在2019年至2024年间在太空搭建由约1.2万颗卫星组成的“星链”网络,其中1584颗将部署在地球上空550千米处的近地轨道,并从2020年开始工作。该卫星仍在工作。
与全量物体交会距离演化趋势
与全量物体交会风险概率演化趋势